Overview Statistics Trail Chart Weather Telemetry Raw packets
 

This is the latest recevied weather packets stored in our database for station/object SQ3MKP-13. If no packets are shown the sender has not sent any weather packets the latest 10 day(s).

<< 91 92 93 94 95 96 97 >>
Time Temp. Humidity Pressure Rain* Wind** Luminosity Snow
1787923980 25.56° C 45% 1003.5 hPa - - 102 W/m² -
1787923679 25.56° C 44% 1003.4 hPa - - 137 W/m² -
1787923378 25.56° C 45% 1003.4 hPa - - 145 W/m² -
1787923077 25.56° C 44% 1003.5 hPa - - 150 W/m² -
1787922775 25.56° C 44% 1003.5 hPa - - 164 W/m² -
1787922474 25.56° C 45% 1003.6 hPa - - 167 W/m² -
1787922173 25.56° C 45% 1003.6 hPa - - 179 W/m² -
1787921872 25.56° C 45% 1003.5 hPa - - 177 W/m² -
1787921571 25.56° C 44% 1003.6 hPa - - 156 W/m² -
1787921269 25.56° C 45% 1003.6 hPa - - 168 W/m² -
1787920968 25.56° C 44% 1003.6 hPa - - 189 W/m² -
1787920668 25.56° C 44% 1003.6 hPa - - 194 W/m² -
1787920367 25.56° C 44% 1003.6 hPa - - 216 W/m² -
1787920066 25.56° C 44% 1003.6 hPa - - 227 W/m² -
1787919764 26.11° C 44% 1003.6 hPa - - 261 W/m² -
1787919464 26.11° C 44% 1003.5 hPa - - 423 W/m² -
1787919162 26.11° C 44% 1003.6 hPa - - 514 W/m² -
1787918861 25.56° C 44% 1003.6 hPa - - 500 W/m² -
1787918560 25.56° C 44% 1003.4 hPa - - 488 W/m² -
1787918259 25.56° C 44% 1003.5 hPa - - 461 W/m² -
1787917959 25.56° C 44% 1003.7 hPa - - 523 W/m² -
1787917658 25.56° C 44% 1003.8 hPa - - 540 W/m² -
1787917357 25.56° C 45% 1003.8 hPa - - 467 W/m² -
1787917056 25.56° C 45% 1003.9 hPa - - 601 W/m² -
1787916755 25° C 45% 1003.9 hPa - - 563 W/m² -

* Rain since midnight (hover to see other rain measurements)
** Current wind speed in m/s (hover to see current wind gust speed)